Weather History for Casper, WY

Change the Weather History Date:

Monday, September 2, 2013

  Actual Average Record
Temperature  
Mean Temperature 72 °F 64 °F  
Max Temperature 91 °F 81 °F 93 °F (1998)
Min Temperature 52 °F 47 °F 32 °F (2008)
Degree Days  
Heating Degree Days 0 3  
Month to date heating degree days 0 6  
Since 1 July heating degree days 0 52  
Cooling Degree Days 7 2  
Month to date cooling degree days 11 4  
Year to date cooling degree days 549 401  
Growing Degree Days 22 (Base 50)    
Moisture  
Dew Point 52 °F    
Average Humidity 57    
Maximum Humidity 90    
Minimum Humidity 24    
Precipitation  
Precipitation 0.03 in 0.02 in 1.46 in (1973)
Month to date precipitation 0.03 0.05  
Year to date precipitation 9.23 9.13  
Snow  
Snow 0.00 in 0.00 in - ()
Month to date snowfall 0.0 0.0  
Since 1 July snowfall 0.0 0.0  
Since 1 September snowfall 0.0 0.0  
Snow Depth 0.00 in    
Sea Level Pressure  
Sea Level Pressure 29.93 in    
Wind  
Wind Speed 6 mph (ENE)    
Max Wind Speed 23 mph    
Max Gust Speed 28 mph    
Visibility 10 miles    
Events Rain , Thunderstorm    
T = Trace of Precipitation, MM = Missing Value Source: NWS Daily Summary

Daily Weather History Graph

Daily Weather History Graph

Search for Another Location

Airport:

Trip Planner

Search our weather history database for the weather conditions in past years. The results will help you decide how hot, cold, wet, or windy it might be!

Date:

Astronomy

Sep. 02, 2013 Rise Set
Actual Time 6:31 AM MDT 7:38 PM MDT
Civil Twilight 6:02 AM MDT 8:07 PM MDT
Nautical Twilight 5:27 AM MDT 8:41 PM MDT
Astronomical Twilight 4:51 AM MDT 9:18 PM MDT
Moon 3:49 AM MDT (9/2) 5:55 PM MDT (9/2)
Length of Visible Light 14h 04m
Length of Day
13h 06m
Waning Crescent, 7% of the Moon is Illuminated
Sep 2
Waning Crescent
Sep 5
New
Sep 12
First Quarter
Sep 19
Full
Sep 26
Last Quarter

Hourly Weather History & Observations

Time (MDT) Temp. Heat Index Dew Point Humidity Pressure Visibility Wind Dir Wind Speed Gust Speed Precip Events Conditions
12:53 AM 59.0 °F - 46.9 °F 64% 29.94 in 10.0 mi Calm Calm - N/A   Clear
1:53 AM 55.9 °F - 46.0 °F 69% 29.94 in 10.0 mi Calm Calm - N/A   Clear
2:53 AM 59.0 °F - 46.0 °F 62% 29.93 in 10.0 mi ENE 4.6 mph - N/A   Clear
3:53 AM 55.0 °F - 46.0 °F 72% 29.94 in 10.0 mi North 6.9 mph - N/A   Clear
4:53 AM 53.1 °F - 45.0 °F 74% 29.94 in 10.0 mi Calm Calm - N/A   Clear
5:53 AM 55.9 °F - 46.9 °F 72% 29.94 in 10.0 mi Calm Calm - N/A   Clear
6:53 AM 52.0 °F - 46.0 °F 80% 29.97 in 10.0 mi West 4.6 mph - N/A   Clear
7:53 AM 64.0 °F - 48.9 °F 58% 29.95 in 10.0 mi East 3.5 mph - N/A   Clear
8:53 AM 66.0 °F - 48.9 °F 54% 29.96 in 10.0 mi Calm Calm - N/A   Mostly Cloudy
9:53 AM 69.1 °F - 51.1 °F 53% 29.96 in 10.0 mi Calm Calm - 0.00 in Rain Light Rain
10:53 AM 73.0 °F - 52.0 °F 48% 29.94 in 10.0 mi Calm Calm - 0.00 in   Scattered Clouds
11:53 AM 82.9 °F - 51.1 °F 33% 29.91 in 10.0 mi Variable 3.5 mph - N/A   Clear
12:53 PM 87.1 °F - 48.9 °F 27% 29.89 in 10.0 mi SSE 8.1 mph - N/A   Clear
1:53 PM 90.0 °F - 48.0 °F 24% 29.86 in 10.0 mi Variable 5.8 mph - N/A   Partly Cloudy
2:53 PM 88.0 °F - 48.0 °F 25% 29.83 in 10.0 mi South 10.4 mph 19.6 mph N/A   Mostly Cloudy
3:53 PM 88.0 °F - 46.9 °F 24% 29.82 in 10.0 mi ESE 5.8 mph - N/A   Mostly Cloudy
4:24 PM 78.8 °F - 57.2 °F 47% 30.04 in 10.0 mi North 10.4 mph - 0.00 in Thunderstorm Thunderstorm
4:53 PM 82.0 °F 81.3 °F 54.0 °F 38% 29.84 in 10.0 mi North 16.1 mph 20.7 mph 0.00 in Thunderstorm Scattered Clouds
5:09 PM 82.4 °F 81.7 °F 55.4 °F 39% 30.03 in 10.0 mi North 15.0 mph - N/A   Mostly Cloudy
5:44 PM 82.4 °F 81.4 °F 53.6 °F 37% 30.04 in 10.0 mi NE 12.7 mph - N/A Thunderstorm Scattered Clouds
5:53 PM 81.0 °F 80.5 °F 54.0 °F 39% 29.84 in 10.0 mi NE 16.1 mph - N/A Thunderstorm Partly Cloudy
6:06 PM 78.8 °F - 55.4 °F 44% 30.03 in 10.0 mi NE 13.8 mph - N/A   Clear
6:27 PM 77.0 °F - 57.2 °F 50% 30.03 in 10.0 mi ESE 9.2 mph - 0.02 in Rain , Thunderstorm Light Rain
6:42 PM 78.8 °F - 57.2 °F 47% 30.03 in 10.0 mi East 12.7 mph - 0.02 in Rain Light Rain
6:53 PM 77.0 °F - 55.9 °F 48% 29.85 in 10.0 mi East 16.1 mph - 0.02 in   Scattered Clouds
7:03 PM 77.0 °F - 55.4 °F 47% 30.02 in 10.0 mi ENE 15.0 mph - N/A Thunderstorm Scattered Clouds
7:44 PM 69.8 °F - 60.8 °F 73% 30.05 in 10.0 mi South 8.1 mph - 0.01 in Rain Light Rain
7:53 PM 72.0 °F - 59.0 °F 64% 29.88 in 10.0 mi SSE 16.1 mph 21.9 mph 0.01 in   Overcast
8:53 PM 69.1 °F - 60.1 °F 73% 29.89 in 10.0 mi Calm Calm - 0.00 in   Overcast
9:53 PM 69.1 °F - 59.0 °F 70% 29.89 in 10.0 mi ENE 8.1 mph - N/A   Partly Cloudy
10:53 PM 64.0 °F - 60.1 °F 87% 29.90 in 10.0 mi SW 11.5 mph - N/A   Clear
11:53 PM 63.0 °F - 59.0 °F 87% 29.89 in 10.0 mi WSW 9.2 mph - N/A   Clear